INSAT-4A 1 28911U 05049A 21063.93780772 -.00000226 00000-0 00000-0 0 9995 2 28911 1.5058 94.7668 0001206 330.0612 22.9030 0.99199289 26275 METEOSAT-9 (MSG-2) 1 28912U 05049B 21063.83576382 .00000006 00000-0 00000-0 0 9990 2 28912 4.9829 68.9633 0001019 270.1921 127.9284 1.00267277 55683 ARIANE 5 R/B 1 28913U 05049C 21063.83436806 -.00000180 00000-0 -86691-3 0 9995 2 28913 4.2498 321.5789 7153945 341.5356 86.7044 2.24868019124947 ARIANE 5 DEB [SYLDA] 1 28914U 05049D 21063.47562730 -.00000230 00000-0 -26190-2 0 9995 2 28914 4.6426 338.5890 7166043 306.8068 354.1052 2.23482064124099 MSG-2 DEB [COOLER COVER] 1 29106U 05049E 21063.61954259 -.00000178 00000-0 00000-0 0 9996 2 29106 9.9678 43.6876 0006318 275.0950 313.3418 1.01175847 55387 MSG-2 DEB [BAFFLE COVER] 1 29676U 05049F 21063.51308046 -.00000019 00000-0 00000-0 0 9998 2 29676 9.8410 43.0551 0042362 339.2857 156.8765 1.02230635 54296